Flag for U.S.A. Weather past 2 weeks in Fayetteville, North Carolina, U.S.A.

Now
56 °F

Clear.


Feels Like: 55 °F
Forecast: 52 / 77 °F
Wind: 5 mph from Southwest

Location: Fayetteville Regional Airport

Current Time: Oct 25, 2014 at 8:39:53 PM

Latest Report: Oct 25, 2014 at 7:53 PM


Visibility: 10 mi

Pressure: 29.90 "Hg

Humidity: 75%

Dew point: 48 °F

Location of FayettevilleLocation

Historic Weather in Fayetteville — Graph

°F

Fayetteville temperature yesterday

Maximum temperature yesterday: 71 °F (at 3:53 PM)
Minimum temperature yesterday: 49 °F (at 2:53 AM)
Average temperature yesterday: 58 °F

Past Weeks' High & Low Weather Summary

 TemperatureHumidityPressure
High89 °F (Oct 11, 1:53 PM)97% (Oct 12, 1:04 AM)30.24 "Hg (Oct 12, 1:04 AM)
Low41 °F (Oct 20, 6:53 AM)28% (Oct 25, 3:53 PM)29.72 "Hg (Oct 18, 2:53 PM)
Average64 °F72%29.96 "Hg
* Reported Oct 10 6:53 PM — Oct 25 6:53 PM, Fayetteville, Weather by CustomWeather, © 2014

Note: Actual official high and low records may vary slightly from our data, if they occured in-between our weather recording intervals... More about our weather records

Advertising

Fayetteville weather history for previous 24 hours

 ConditionsComfort  
Time TempWeatherWind HumidityBarometerVisibility
6:53 PM
Oct 25
63 °FSunny.3 mph54%29.90 "Hg10 mi
5:53 PM70 °FSunny.7 mph35%29.89 "Hg10 mi
4:53 PM72 °FSunny.7 mph29%29.89 "Hg10 mi
3:53 PM74 °FSunny.3 mph28%29.90 "Hg10 mi
2:53 PM73 °FSunny.8 mph29%29.91 "Hg10 mi
1:53 PM71 °FSunny.5 mph35%29.93 "Hg10 mi
12:53 PM68 °FSunny.9 mph38%29.97 "Hg10 mi
11:53 AM66 °FSunny.7 mph43%29.99 "Hg10 mi
10:53 AM62 °FSunny.7 mph50%29.99 "Hg10 mi
9:53 AM58 °FSunny.7 mph58%29.99 "Hg10 mi
8:53 AM53 °FSunny.5 mph74%30.01 "Hg10 mi
7:53 AM45 °FClear.No wind90%29.99 "Hg10 mi
6:53 AM48 °FClear.No wind83%29.98 "Hg10 mi
5:53 AM47 °FClear.6 mph90%29.96 "Hg10 mi
4:53 AM45 °FClear.7 mph93%29.95 "Hg8 mi
3:53 AM47 °FClear.No wind93%29.94 "Hg10 mi
2:53 AM47 °FClear.5 mph90%29.95 "Hg9 mi
1:53 AM50 °FClear.5 mph89%29.96 "Hg10 mi
12:53 AM50 °FClear.5 mph89%29.96 "Hg10 mi
11:53 PM
Oct 24
54 °FClear.3 mph83%29.98 "Hg10 mi
10:53 PM54 °FClear.6 mph86%29.99 "Hg10 mi
9:53 PM55 °FClear.No wind83%29.97 "Hg10 mi
8:53 PM54 °FClear.No wind86%29.96 "Hg10 mi
Weather by CustomWeather, © 2014

See weather overviewHow to use our weather pages